Weather History for Altus AFB, OK

Change the Weather History Date:

Monday, January 7, 2013

  Actual Average Record
Temperature  
Mean Temperature 36 °F -  
Max Temperature 50 °F 49 °F 73 °F (2008)
Min Temperature 22 °F 26 °F 12 °F (2004)
Degree Days  
Heating Degree Days 29    
Moisture  
Dew Point 24 °F    
Average Humidity 69    
Maximum Humidity 88    
Minimum Humidity 38    
Precipitation  
Precipitation 0.08 in - - ()
Sea Level Pressure  
Sea Level Pressure 30.21 in    
Wind  
Wind Speed 4 mph (SE)    
Max Wind Speed 14 mph    
Max Gust Speed -    
Visibility 10 miles    
Events      
Averages and records for this station are not official NWS values.
T = Trace of Precipitation, MM = Missing Value Source: NWS Daily Summary

Daily Weather History Graph

Daily Weather History Graph

Search for Another Location

Airport:

Trip Planner

Search our weather history database for the weather conditions in past years. The results will help you decide how hot, cold, wet, or windy it might be!

Date:

Astronomy

Jan. 07, 2013 Rise Set
Actual Time 7:44 AM CST 5:42 PM CST
Civil Twilight 7:17 AM CST 6:10 PM CST
Nautical Twilight 6:45 AM CST 6:41 PM CST
Astronomical Twilight 6:15 AM CST 7:11 PM CST
Moon 3:13 AM CST (1/7) 1:52 PM CST (1/7)
Length of Visible Light 10h 53m
Length of Day
9h 57m
Waning Crescent, 22% of the Moon is Illuminated
Jan 7
Waning Crescent
Jan 11
New
Jan 18
First Quarter
Jan 26
Full
Feb 3
Last Quarter

Hourly Weather History & Observations

Time (CST) Temp. Windchill Dew Point Humidity Pressure Visibility Wind Dir Wind Speed Gust Speed Precip Events Conditions
12:55 AM 26.2 °F - 21.6 °F 82% 30.31 in 10.0 mi Calm Calm - N/A   Clear
1:55 AM 24.4 °F 18.6 °F 20.5 °F 85% 30.30 in 10.0 mi ENE 4.6 mph - N/A   Clear
2:55 AM 24.3 °F 18.4 °F 20.1 °F 84% 30.30 in 10.0 mi East 4.6 mph - N/A   Clear
3:55 AM 23.9 °F - 20.1 °F 85% 30.28 in 10.0 mi Calm Calm - N/A   Clear
4:55 AM 23.5 °F - 20.3 °F 87% 30.27 in 10.0 mi Calm Calm - N/A   Clear
5:55 AM 22.1 °F - 17.6 °F 83% 30.28 in 10.0 mi Calm Calm - N/A   Clear
6:55 AM 23.7 °F - 20.1 °F 86% 30.27 in 10.0 mi Calm Calm - N/A   Clear
7:55 AM 24.4 °F 18.6 °F 20.7 °F 86% 30.28 in 10.0 mi East 4.6 mph - N/A   Clear
8:55 AM 26.8 °F - 23.7 °F 88% 30.29 in 10.0 mi Calm Calm - N/A   Clear
9:55 AM 31.6 °F 27.0 °F 26.6 °F 82% 30.30 in 10.0 mi SE 4.6 mph - N/A   Clear
10:55 AM 37.4 °F 32.8 °F 27.3 °F 67% 30.30 in 10.0 mi SE 5.8 mph - N/A   Scattered Clouds
11:55 AM 43.0 °F 36.8 °F 27.3 °F 54% 30.25 in 10.0 mi South 11.5 mph - N/A   Clear
12:55 PM 45.5 °F 39.2 °F 25.5 °F 46% 30.19 in 10.0 mi South 13.8 mph - N/A   Clear
1:55 PM 48.2 °F - 26.2 °F 42% 30.16 in 10.0 mi South 11.5 mph - N/A   Partly Cloudy
2:55 PM 48.9 °F - 25.3 °F 40% 30.14 in 10.0 mi South 11.5 mph - N/A   Partly Cloudy
3:55 PM 50.0 °F - 25.3 °F 38% 30.23 in 10.0 mi SSE 10.4 mph - N/A   Scattered Clouds
4:55 PM 47.8 °F - 25.0 °F 41% 30.12 in 10.0 mi SSE 9.2 mph - 0.08 in   Scattered Clouds
5:55 PM 43.2 °F 39.0 °F 26.6 °F 52% 30.13 in 10.0 mi SE 6.9 mph - N/A   Partly Cloudy
6:55 PM 41.4 °F 36.2 °F 26.6 °F 56% 30.12 in 10.0 mi SE 8.1 mph - N/A   Scattered Clouds
7:55 PM 37.4 °F 31.4 °F 26.2 °F 64% 30.12 in 10.0 mi SE 8.1 mph - N/A   Mostly Cloudy
8:55 PM 34.0 °F 28.0 °F 25.9 °F 72% 30.12 in 10.0 mi SE 6.9 mph - N/A   Partly Cloudy
9:55 PM 34.2 °F 30.0 °F 25.7 °F 71% 30.11 in 10.0 mi SSE 4.6 mph - N/A   Clear
10:55 PM 34.0 °F 31.0 °F 26.6 °F 74% 30.10 in 10.0 mi ESE 3.5 mph - N/A   Clear
11:55 PM 33.8 °F 29.6 °F 28.2 °F 80% 30.08 in 10.0 mi East 4.6 mph - N/A   Overcast